Location: Haulchin
(50.3172°N, 3.4360°E)
Time: 05:28:49
(UTC+00:00)

Cosmos 2333 Rocket - Pass Details

Date: 14 August 2024
Orbit: 839 x 863 km, 70.8° (Epoch: 16 September)

Event Time Altitude Azimuth Distance (km) Brightness Sun altitude
Exits shadow 22:38:59 22° 92° (E) 1,810 3.7 -23.8°
Drops below altitude 10° 22:42:40 10° 53° (NE) 2,510 4.9 -24.0°
Sets 22:45:39 0° 39° (NE) 3,453 5.8 -24.1°
